Location: Azalea Creek
(37.1280°N, 119.2623°W)
Time: 00:35:12
(UTC+00:00)

FALCON 9 R/B - Pass Details

Date: 17 February 2020
Orbit: 286 x 10154 km, 34.5° (Epoch: 03 April)

Event Time Altitude Azimuth Distance (km) Brightness Sun altitude
Rises 03:34:51 0° 281° (W) 9,920 9.1 -23.9°
Reaches altitude 10° 03:44:38 10° 279° (W) 7,011 7.9 -25.9°
Maximum altitude 04:00:53 56° 208° (SSW) 1,519 3.5 -29.1°
Enters shadow 04:02:17 48° 167° (SSE) 1,427 3.1 -29.4°
